User: anonymous   Login
Location: Unspecified
(0.0000°N, 0.0000°E)
Time: 04:53:26
(UTC+00:00)
Language:

KORONAS-FOTON - Orbit

View from above orbital plane
View from above orbital plane
View from above satellite
View from above satellite

Ground track
Ground track

The orbit data is extracted from the following two-line orbital elements,

1 33504U 09003A   16181.17941934  .00000393  00000-0  19660-4 0  9993
2 33504  82.4425 223.6374 0018206 247.5496 112.3808 15.14357446408042
Epoch (UTC): 29 June 2016 04:18:21
Eccentricity: 0.0018206
inclination: 82.4425°
perigee height: 510 km
apogee height: 535 km
right ascension of ascending node: 223.6374°
argument of perigee: 247.5496°
revolutions per day: 15.14357446
mean anomaly at epoch: 112.3808°
orbit number at epoch: 40804

The dashed part of the orbit path shows where the satellite is in the earth's shadow,  

DLR